Location: ?????????
(53.2086°N, 54.0693°E)
Time: 09:35:57
(UTC+00:00)

Cosmos 1428 Rocket - Pass Details

Date: 08 December 2019
Orbit: 949 x 987 km, 82.9° (Epoch: 17 January)

Event Time Altitude Azimuth Distance (km) Brightness Sun altitude
Rises 15:06:31 0° 187° (S) 3,629 7.6 -25.5°
Reaches altitude 10° 15:08:59 10° 187° (S) 2,692 6.9 -25.9°
Maximum altitude 15:15:10 88° 99° (E) 978 4.3 -26.8°
Enters shadow 15:19:22 23° 11° (N) 1,973 5.9 -27.5°
